Time,TemperatureF,DewpointF,PressureIn,WindDirection,WindDirectionDegrees,WindSpeedMPH,WindSpeedGustMPH,Humidity,HourlyPrecipIn,Conditions,Clouds,dailyrainin,SoftwareType,DateUTC
2013-05-08 00:04:00,56.0,0.0,29.95,WNW,289,15.0,24.0,53,-99.99,,,-99.99,,2013-05-08 07:04:00,
2013-05-08 00:12:00,55.0,0.0,29.95,NW,308,17.0,23.0,53,-99.99,,,-99.99,,2013-05-08 07:12:00,
2013-05-08 00:20:00,55.0,0.0,29.94,WNW,300,18.0,25.0,57,-99.99,,,-99.99,,2013-05-08 07:20:00,
2013-05-08 00:28:00,54.0,0.0,29.95,WNW,298,17.0,24.0,58,-99.99,,,-99.99,,2013-05-08 07:28:00,
2013-05-08 00:36:00,54.0,0.0,29.95,West,270,14.0,24.0,56,-99.99,,,-99.99,,2013-05-08 07:36:00,
2013-05-08 00:44:00,54.0,0.0,29.95,WNW,295,12.0,23.0,56,-99.99,,,-99.99,,2013-05-08 07:44:00,
2013-05-08 00:52:00,54.0,0.0,29.95,WNW,302,12.0,24.0,59,-99.99,,,-99.99,,2013-05-08 07:52:00,
2013-05-08 01:00:00,54.0,0.0,29.95,NW,312,12.0,24.0,59,-99.99,,,-99.99,,2013-05-08 08:00:00,
2013-05-08 01:08:00,54.0,0.0,29.95,NW,318,17.0,23.0,62,-99.99,,,-99.99,,2013-05-08 08:08:00,
2013-05-08 01:16:00,54.0,0.0,29.95,WNW,290,16.0,26.0,59,-99.99,,,-99.99,,2013-05-08 08:16:00,
2013-05-08 01:24:00,53.0,0.0,29.95,NW,309,13.0,26.0,59,-99.99,,,-99.99,,2013-05-08 08:24:00,
2013-05-08 01:32:00,53.0,0.0,29.95,WNW,295,16.0,22.0,61,-99.99,,,-99.99,,2013-05-08 08:32:00,
2013-05-08 01:40:00,53.0,0.0,29.95,West,279,16.0,22.0,59,-99.99,,,-99.99,,2013-05-08 08:40:00,
2013-05-08 01:48:00,53.0,0.0,29.95,NW,313,15.0,20.0,61,-99.99,,,-99.99,,2013-05-08 08:48:00,
2013-05-08 01:56:00,53.0,0.0,29.95,NW,312,9.0,20.0,62,-99.99,,,-99.99,,2013-05-08 08:56:00,
2013-05-08 02:04:00,53.0,0.0,29.95,West,260,14.0,20.0,60,-99.99,,,-99.99,,2013-05-08 09:04:00,
2013-05-08 02:12:00,53.0,0.0,29.95,NW,304,16.0,21.0,63,-99.99,,,-99.99,,2013-05-08 09:12:00,
2013-05-08 02:20:00,53.0,0.0,29.95,NW,312,16.0,23.0,64,-99.99,,,-99.99,,2013-05-08 09:20:00,
2013-05-08 02:28:00,53.0,0.0,29.95,NW,312,21.0,25.0,64,-99.99,,,-99.99,,2013-05-08 09:28:00,
2013-05-08 02:36:00,53.0,0.0,29.95,WNW,300,20.0,25.0,62,-99.99,,,-99.99,,2013-05-08 09:36:00,
2013-05-08 02:44:00,52.0,0.0,29.96,WNW,303,21.0,25.0,64,-99.99,,,-99.99,,2013-05-08 09:44:00,
2013-05-08 02:52:00,52.0,0.0,29.95,WNW,298,18.0,24.0,62,-99.99,,,-99.99,,2013-05-08 09:52:00,
2013-05-08 03:00:00,52.0,0.0,29.95,WNW,300,22.0,25.0,63,-99.99,,,-99.99,,2013-05-08 10:00:00,
2013-05-08 03:08:00,52.0,0.0,29.95,NW,310,16.0,24.0,63,-99.99,,,-99.99,,2013-05-08 10:08:00,
2013-05-08 03:16:00,52.0,0.0,29.95,WSW,241,9.0,24.0,62,-99.99,,,-99.99,,2013-05-08 10:16:00,
2013-05-08 03:24:00,52.0,0.0,29.96,NW,309,13.0,22.0,63,-99.99,,,-99.99,,2013-05-08 10:24:00,
2013-05-08 03:32:00,52.0,0.0,29.96,NW,306,12.0,20.0,62,-99.99,,,-99.99,,2013-05-08 10:32:00,
2013-05-08 03:40:00,52.0,0.0,29.96,WNW,291,14.0,22.0,64,-99.99,,,-99.99,,2013-05-08 10:40:00,
2013-05-08 03:48:00,52.0,0.0,29.96,NW,312,13.0,20.0,64,-99.99,,,-99.99,,2013-05-08 10:48:00,
2013-05-08 03:56:00,52.0,0.0,29.95,WNW,296,20.0,26.0,62,-99.99,,,-99.99,,2013-05-08 10:56:00,
2013-05-08 04:04:00,52.0,0.0,29.96,NW,306,14.0,24.0,65,-99.99,,,-99.99,,2013-05-08 11:04:00,
2013-05-08 04:12:00,52.0,0.0,29.96,WNW,301,13.0,23.0,67,-99.99,,,-99.99,,2013-05-08 11:12:00,
2013-05-08 04:20:00,51.0,0.0,29.96,NW,307,16.0,26.0,64,-99.99,,,-99.99,,2013-05-08 11:20:00,
2013-05-08 04:28:00,51.0,0.0,29.97,WNW,303,14.0,23.0,66,-99.99,,,-99.99,,2013-05-08 11:28:00,
2013-05-08 04:36:00,51.0,0.0,29.97,WNW,285,18.0,20.0,66,-99.99,,,-99.99,,2013-05-08 11:36:00,
2013-05-08 04:44:00,51.0,0.0,29.97,WNW,300,13.0,18.0,68,-99.99,,,-99.99,,2013-05-08 11:44:00,
2013-05-08 04:52:00,51.0,0.0,29.97,NW,313,13.0,18.0,66,-99.99,,,-99.99,,2013-05-08 11:52:00,
2013-05-08 05:00:00,51.0,0.0,29.97,NW,311,10.0,18.0,64,-99.99,,,-99.99,,2013-05-08 12:00:00,
2013-05-08 05:08:00,51.0,0.0,29.98,West,273,13.0,17.0,66,-99.99,,,-99.99,,2013-05-08 12:08:00,
2013-05-08 05:16:00,51.0,0.0,29.98,NW,309,15.0,17.0,68,-99.99,,,-99.99,,2013-05-08 12:16:00,
2013-05-08 05:24:00,51.0,0.0,29.98,NW,314,12.0,17.0,68,-99.99,,,-99.99,,2013-05-08 12:24:00,
2013-05-08 05:32:00,51.0,0.0,29.99,NW,305,9.0,15.0,67,-99.99,,,-99.99,,2013-05-08 12:32:00,
2013-05-08 05:40:00,51.0,0.0,29.99,WNW,303,9.0,15.0,65,-99.99,,,-99.99,,2013-05-08 12:40:00,
2013-05-08 05:48:00,50.0,0.0,29.99,NW,309,8.0,14.0,68,-99.99,,,-99.99,,2013-05-08 12:48:00,
2013-05-08 05:56:00,50.0,0.0,30.00,NW,312,13.0,16.0,67,-99.99,,,-99.99,,2013-05-08 12:56:00,
2013-05-08 06:04:00,51.0,0.0,30.00,NW,313,10.0,15.0,67,-99.99,,,-99.99,,2013-05-08 13:04:00,
2013-05-08 06:12:00,51.0,0.0,30.00,NW,306,10.0,15.0,66,-99.99,,,-99.99,,2013-05-08 13:12:00,
2013-05-08 06:20:00,52.0,0.0,30.00,WNW,291,12.0,17.0,65,-99.99,,,-99.99,,2013-05-08 13:20:00,
2013-05-08 06:28:00,52.0,0.0,30.01,WNW,298,12.0,17.0,68,-99.99,,,-99.99,,2013-05-08 13:28:00,
2013-05-08 06:36:00,52.0,0.0,30.01,NW,309,10.0,17.0,62,-99.99,,,-99.99,,2013-05-08 13:36:00,
2013-05-08 06:44:00,53.0,0.0,30.01,West,261,8.0,15.0,62,-99.99,,,-99.99,,2013-05-08 13:44:00,
2013-05-08 06:52:00,54.0,0.0,30.01,NW,314,9.0,15.0,61,-99.99,,,-99.99,,2013-05-08 13:52:00,
2013-05-08 07:00:00,55.0,0.0,30.01,NW,324,14.0,15.0,59,-99.99,,,-99.99,,2013-05-08 14:00:00,
2013-05-08 07:08:00,56.0,0.0,30.01,WNW,286,10.0,16.0,56,-99.99,,,-99.99,,2013-05-08 14:08:00,
2013-05-08 07:16:00,56.0,0.0,30.02,NW,308,7.0,16.0,56,-99.99,,,-99.99,,2013-05-08 14:16:00,
2013-05-08 07:24:00,57.0,0.0,30.02,West,267,9.0,15.0,52,-99.99,,,-99.99,,2013-05-08 14:24:00,
2013-05-08 07:32:00,57.0,0.0,30.02,NW,323,12.0,17.0,54,-99.99,,,-99.99,,2013-05-08 14:32:00,
2013-05-08 07:40:00,57.0,0.0,30.02,WNW,297,16.0,18.0,52,-99.99,,,-99.99,,2013-05-08 14:40:00,
2013-05-08 07:48:00,58.0,0.0,30.02,NW,320,15.0,18.0,51,-99.99,,,-99.99,,2013-05-08 14:48:00,
2013-05-08 07:56:00,58.0,0.0,30.03,NW,318,14.0,20.0,53,-99.99,,,-99.99,,2013-05-08 14:56:00,
2013-05-08 08:04:00,58.0,0.0,30.03,NW,313,13.0,18.0,52,-99.99,,,-99.99,,2013-05-08 15:04:00,
2013-05-08 08:12:00,58.0,0.0,30.03,West,264,13.0,18.0,50,-99.99,,,-99.99,,2013-05-08 15:12:00,
2013-05-08 08:20:00,58.0,0.0,30.03,WNW,303,10.0,16.0,50,-99.99,,,-99.99,,2013-05-08 15:20:00,
2013-05-08 08:28:00,58.0,0.0,30.03,NW,320,12.0,16.0,51,-99.99,,,-99.99,,2013-05-08 15:28:00,
2013-05-08 08:36:00,59.0,0.0,30.03,NW,319,12.0,14.0,49,-99.99,,,-99.99,,2013-05-08 15:36:00,
2013-05-08 08:44:00,61.0,0.0,30.03,NW,313,12.0,14.0,45,-99.99,,,-99.99,,2013-05-08 15:44:00,
2013-05-08 08:52:00,63.0,0.0,30.03,WNW,294,10.0,14.0,44,-99.99,,,-99.99,,2013-05-08 15:52:00,
2013-05-08 09:00:00,63.0,0.0,30.03,NW,308,10.0,14.0,41,-99.99,,,-99.99,,2013-05-08 16:00:00,
2013-05-08 09:08:00,64.0,0.0,30.03,NW,308,8.0,12.0,41,-99.99,,,-99.99,,2013-05-08 16:08:00,
2013-05-08 09:16:00,65.0,0.0,30.03,NW,324,8.0,12.0,37,-99.99,,,-99.99,,2013-05-08 16:16:00,
2013-05-08 09:24:00,66.0,0.0,30.03,NW,321,0.0,12.0,37,-99.99,,,-99.99,,2013-05-08 16:24:00,
2013-05-08 09:32:00,66.0,0.0,30.03,NNW,327,8.0,9.0,37,-99.99,,,-99.99,,2013-05-08 16:32:00,
2013-05-08 09:40:00,67.0,0.0,30.03,NNW,333,0.0,9.0,36,-99.99,,,-99.99,,2013-05-08 16:40:00,
2013-05-08 09:48:00,66.0,0.0,30.03,NW,314,2.0,7.0,36,-99.99,,,-99.99,,2013-05-08 16:48:00,
2013-05-08 09:56:00,67.0,0.0,30.04,NW,323,0.0,6.0,33,-99.99,,,-99.99,,2013-05-08 16:56:00,
2013-05-08 10:04:00,66.0,0.0,30.04,SW,229,5.0,8.0,34,-99.99,,,-99.99,,2013-05-08 17:04:00,
2013-05-08 10:12:00,66.0,0.0,30.03,West,262,0.0,7.0,34,-99.99,,,-99.99,,2013-05-08 17:12:00,
2013-05-08 10:20:00,67.0,0.0,30.03,NW,319,0.0,7.0,35,-99.99,,,-99.99,,2013-05-08 17:20:00,
2013-05-08 10:28:00,67.0,0.0,30.03,West,269,0.0,5.0,33,-99.99,,,-99.99,,2013-05-08 17:28:00,
2013-05-08 10:36:00,69.0,0.0,30.03,NNW,345,1.0,3.0,31,-99.99,,,-99.99,,2013-05-08 17:36:00,
2013-05-08 10:44:00,68.0,0.0,30.04,NW,322,1.0,6.0,33,-99.99,,,-99.99,,2013-05-08 17:44:00,
2013-05-08 10:52:00,70.0,0.0,30.04,NW,314,2.0,9.0,31,-99.99,,,-99.99,,2013-05-08 17:52:00,
2013-05-08 11:00:00,69.0,0.0,30.04,WNW,289,2.0,5.0,32,-99.99,,,-99.99,,2013-05-08 18:00:00,
2013-05-08 11:08:00,68.0,0.0,30.03,ESE,114,0.0,6.0,33,-99.99,,,-99.99,,2013-05-08 18:08:00,
2013-05-08 11:16:00,70.0,0.0,30.03,WSW,249,5.0,7.0,31,-99.99,,,-99.99,,2013-05-08 18:16:00,
2013-05-08 11:24:00,69.0,0.0,30.03,SW,225,2.0,9.0,29,-99.99,,,-99.99,,2013-05-08 18:24:00,
2013-05-08 11:32:00,70.0,0.0,30.03,West,274,2.0,7.0,31,-99.99,,,-99.99,,2013-05-08 18:32:00,
2013-05-08 11:40:00,70.0,0.0,30.02,NW,325,2.0,6.0,28,-99.99,,,-99.99,,2013-05-08 18:40:00,
2013-05-08 11:48:00,71.0,0.0,30.02,NW,319,7.0,7.0,27,-99.99,,,-99.99,,2013-05-08 18:48:00,
2013-05-08 11:56:00,73.0,0.0,30.02,WSW,253,6.0,9.0,27,-99.99,,,-99.99,,2013-05-08 18:56:00,
2013-05-08 12:04:00,72.0,0.0,30.02,NW,311,3.0,9.0,28,-99.99,,,-99.99,,2013-05-08 19:04:00,
2013-05-08 12:12:00,74.0,0.0,30.02,West,276,5.0,8.0,27,-99.99,,,-99.99,,2013-05-08 19:12:00,
2013-05-08 12:20:00,73.0,0.0,30.02,South,185,6.0,12.0,25,-99.99,,,-99.99,,2013-05-08 19:20:00,
2013-05-08 12:28:00,72.0,0.0,30.01,NW,313,6.0,12.0,25,-99.99,,,-99.99,,2013-05-08 19:28:00,
2013-05-08 12:36:00,74.0,0.0,30.01,West,272,6.0,10.0,24,-99.99,,,-99.99,,2013-05-08 19:36:00,
2013-05-08 12:44:00,73.0,0.0,30.00,NNW,343,0.0,9.0,26,-99.99,,,-99.99,,2013-05-08 19:44:00,
2013-05-08 12:52:00,75.0,0.0,30.00,WSW,241,10.0,15.0,25,-99.99,,,-99.99,,2013-05-08 19:52:00,
2013-05-08 13:00:00,74.0,0.0,30.01,WSW,257,13.0,15.0,26,-99.99,,,-99.99,,2013-05-08 20:00:00,
2013-05-08 13:08:00,73.0,0.0,30.00,WNW,286,10.0,14.0,26,-99.99,,,-99.99,,2013-05-08 20:08:00,
2013-05-08 13:16:00,74.0,0.0,30.00,WSW,257,7.0,20.0,25,-99.99,,,-99.99,,2013-05-08 20:16:00,
2013-05-08 13:24:00,75.0,0.0,30.00,SSW,203,3.0,20.0,26,-99.99,,,-99.99,,2013-05-08 20:24:00,
2013-05-08 13:32:00,74.0,0.0,30.00,WSW,243,6.0,13.0,25,-99.99,,,-99.99,,2013-05-08 20:32:00,
2013-05-08 13:40:00,76.0,0.0,29.99,South,190,1.0,13.0,24,-99.99,,,-99.99,,2013-05-08 20:40:00,
2013-05-08 13:48:00,74.0,0.0,29.99,SW,221,1.0,9.0,24,-99.99,,,-99.99,,2013-05-08 20:48:00,
2013-05-08 13:56:00,74.0,0.0,29.99,SW,230,7.0,15.0,25,-99.99,,,-99.99,,2013-05-08 20:56:00,
2013-05-08 14:04:00,76.0,0.0,29.98,WNW,287,7.0,12.0,23,-99.99,,,-99.99,,2013-05-08 21:04:00,
2013-05-08 14:12:00,74.0,0.0,29.98,SSE,157,5.0,12.0,25,-99.99,,,-99.99,,2013-05-08 21:12:00,
2013-05-08 14:20:00,75.0,0.0,29.98,West,259,6.0,14.0,25,-99.99,,,-99.99,,2013-05-08 21:20:00,
2013-05-08 14:28:00,75.0,0.0,29.97,SW,225,10.0,13.0,23,-99.99,,,-99.99,,2013-05-08 21:28:00,
2013-05-08 14:36:00,75.0,0.0,29.97,NE,43,5.0,12.0,23,-99.99,,,-99.99,,2013-05-08 21:36:00,
2013-05-08 14:44:00,76.0,0.0,29.97,West,259,8.0,15.0,24,-99.99,,,-99.99,,2013-05-08 21:44:00,
2013-05-08 14:52:00,76.0,0.0,29.97,West,280,7.0,15.0,25,-99.99,,,-99.99,,2013-05-08 21:52:00,
2013-05-08 15:00:00,77.0,0.0,29.96,WNW,285,2.0,9.0,21,-99.99,,,-99.99,,2013-05-08 22:00:00,
2013-05-08 15:08:00,77.0,0.0,29.96,NW,313,5.0,8.0,22,-99.99,,,-99.99,,2013-05-08 22:08:00,
2013-05-08 15:16:00,77.0,0.0,29.96,West,277,8.0,13.0,21,-99.99,,,-99.99,,2013-05-08 22:16:00,
2013-05-08 15:24:00,76.0,0.0,29.95,West,274,5.0,12.0,25,-99.99,,,-99.99,,2013-05-08 22:24:00,
2013-05-08 15:32:00,77.0,0.0,29.95,SW,221,9.0,12.0,24,-99.99,,,-99.99,,2013-05-08 22:32:00,
2013-05-08 15:40:00,77.0,0.0,29.95,WSW,242,10.0,10.0,23,-99.99,,,-99.99,,2013-05-08 22:40:00,
2013-05-08 15:48:00,77.0,0.0,29.95,WNW,302,0.0,10.0,22,-99.99,,,-99.99,,2013-05-08 22:48:00,
2013-05-08 15:56:00,76.0,0.0,29.94,SSE,161,9.0,12.0,25,-99.99,,,-99.99,,2013-05-08 22:56:00,
2013-05-08 16:04:00,75.0,0.0,29.94,SW,217,9.0,13.0,26,-99.99,,,-99.99,,2013-05-08 23:04:00,
2013-05-08 16:12:00,75.0,0.0,29.94,SW,221,8.0,13.0,24,-99.99,,,-99.99,,2013-05-08 23:12:00,
2013-05-08 16:20:00,74.0,0.0,29.95,SW,224,5.0,12.0,22,-99.99,,,-99.99,,2013-05-08 23:20:00,
2013-05-08 16:28:00,74.0,0.0,29.95,WSW,256,7.0,12.0,27,-99.99,,,-99.99,,2013-05-08 23:28:00,
2013-05-08 16:36:00,74.0,0.0,29.94,West,262,6.0,14.0,25,-99.99,,,-99.99,,2013-05-08 23:36:00,
2013-05-08 16:44:00,74.0,0.0,29.95,SSW,213,5.0,14.0,22,-99.99,,,-99.99,,2013-05-08 23:44:00,
2013-05-08 16:52:00,74.0,0.0,29.95,West,265,8.0,14.0,25,-99.99,,,-99.99,,2013-05-08 23:52:00,
2013-05-08 17:00:00,73.0,0.0,29.95,West,278,6.0,12.0,23,-99.99,,,-99.99,,2013-05-09 00:00:00,
2013-05-08 17:08:00,73.0,0.0,29.95,SW,228,6.0,9.0,24,-99.99,,,-99.99,,2013-05-09 00:08:00,
2013-05-08 17:16:00,73.0,0.0,29.95,WSW,239,13.0,16.0,25,-99.99,,,-99.99,,2013-05-09 00:16:00,
2013-05-08 17:24:00,72.0,0.0,29.95,SW,229,10.0,28.0,24,-99.99,,,-99.99,,2013-05-09 00:24:00,
2013-05-08 17:32:00,72.0,0.0,29.95,SW,220,9.0,17.0,25,-99.99,,,-99.99,,2013-05-09 00:32:00,
2013-05-08 17:40:00,72.0,0.0,29.96,South,173,7.0,20.0,26,-99.99,,,-99.99,,2013-05-09 00:40:00,
2013-05-08 17:48:00,72.0,0.0,29.96,South,178,9.0,16.0,27,-99.99,,,-99.99,,2013-05-09 00:48:00,
2013-05-08 17:56:00,71.0,0.0,29.96,SSW,207,14.0,22.0,30,-99.99,,,-99.99,,2013-05-09 00:56:00,
2013-05-08 18:04:00,71.0,0.0,29.96,SW,230,6.0,20.0,30,-99.99,,,-99.99,,2013-05-09 01:04:00,
2013-05-08 18:12:00,70.0,0.0,29.97,SSW,192,5.0,15.0,35,-99.99,,,-99.99,,2013-05-09 01:12:00,
2013-05-08 18:20:00,70.0,0.0,29.97,SSE,159,8.0,12.0,32,-99.99,,,-99.99,,2013-05-09 01:20:00,
2013-05-08 18:28:00,70.0,0.0,29.97,East,100,9.0,17.0,30,-99.99,,,-99.99,,2013-05-09 01:28:00,
2013-05-08 18:36:00,70.0,0.0,29.97,South,175,7.0,18.0,32,-99.99,,,-99.99,,2013-05-09 01:36:00,
2013-05-08 18:44:00,70.0,0.0,29.97,South,184,5.0,18.0,31,-99.99,,,-99.99,,2013-05-09 01:44:00,
2013-05-08 18:52:00,70.0,0.0,29.96,North,3,1.0,13.0,30,-99.99,,,-99.99,,2013-05-09 01:52:00,
2013-05-08 19:00:00,70.0,0.0,29.96,East,85,12.0,13.0,28,-99.99,,,-99.99,,2013-05-09 02:00:00,
2013-05-08 19:08:00,70.0,0.0,29.96,SSW,192,5.0,13.0,28,-99.99,,,-99.99,,2013-05-09 02:08:00,
2013-05-08 19:16:00,70.0,0.0,29.96,SSW,196,5.0,12.0,28,-99.99,,,-99.99,,2013-05-09 02:16:00,
2013-05-08 19:24:00,70.0,0.0,29.96,SW,220,5.0,13.0,31,-99.99,,,-99.99,,2013-05-09 02:24:00,
2013-05-08 19:32:00,69.0,0.0,29.96,SSW,202,5.0,12.0,33,-99.99,,,-99.99,,2013-05-09 02:32:00,
2013-05-08 19:40:00,69.0,0.0,29.96,WSW,241,3.0,7.0,33,-99.99,,,-99.99,,2013-05-09 02:40:00,
2013-05-08 19:48:00,68.0,0.0,29.96,WSW,256,3.0,7.0,37,-99.99,,,-99.99,,2013-05-09 02:48:00,
2013-05-08 19:56:00,68.0,0.0,29.96,West,261,7.0,8.0,33,-99.99,,,-99.99,,2013-05-09 02:56:00,
2013-05-08 20:04:00,67.0,0.0,29.96,WSW,258,3.0,8.0,34,-99.99,,,-99.99,,2013-05-09 03:04:00,
2013-05-08 20:12:00,67.0,0.0,29.96,WSW,258,2.0,6.0,34,-99.99,,,-99.99,,2013-05-09 03:12:00,
2013-05-08 20:20:00,66.0,0.0,29.96,West,267,3.0,3.0,35,-99.99,,,-99.99,,2013-05-09 03:20:00,
2013-05-08 20:28:00,66.0,0.0,29.96,West,267,0.0,3.0,34,-99.99,,,-99.99,,2013-05-09 03:28:00,
2013-05-08 20:36:00,66.0,0.0,29.96,West,267,0.0,0.0,37,-99.99,,,-99.99,,2013-05-09 03:36:00,
2013-05-08 20:44:00,66.0,0.0,29.96,West,266,3.0,3.0,34,-99.99,,,-99.99,,2013-05-09 03:44:00,
2013-05-08 20:52:00,65.0,0.0,29.96,WNW,298,0.0,3.0,33,-99.99,,,-99.99,,2013-05-09 03:52:00,
2013-05-08 21:00:00,64.0,0.0,29.97,NNW,328,2.0,3.0,38,-99.99,,,-99.99,,2013-05-09 04:00:00,
2013-05-08 21:04:00,64.0,0.0,29.97,NW,324,3.0,5.0,36,-99.99,,,-99.99,,2013-05-09 04:04:00,
2013-05-08 21:08:00,65.0,0.0,29.97,NNW,331,3.0,5.0,35,-99.99,,,-99.99,,2013-05-09 04:08:00,
2013-05-08 21:16:00,65.0,0.0,29.98,NNW,338,1.0,6.0,34,-99.99,,,-99.99,,2013-05-09 04:16:00,
2013-05-08 21:20:00,64.0,0.0,29.98,NNW,340,0.0,6.0,35,-99.99,,,-99.99,,2013-05-09 04:20:00,
2013-05-08 21:24:00,65.0,0.0,29.98,NNW,339,0.0,2.0,34,-99.99,,,-99.99,,2013-05-09 04:24:00,
2013-05-08 21:32:00,65.0,0.0,29.98,NNW,339,1.0,2.0,34,-99.99,,,-99.99,,2013-05-09 04:32:00,
2013-05-08 21:40:00,65.0,0.0,29.99,NNW,329,0.0,2.0,36,-99.99,,,-99.99,,2013-05-09 04:40:00,
2013-05-08 21:48:00,64.0,0.0,29.99,WNW,286,3.0,3.0,35,-99.99,,,-99.99,,2013-05-09 04:48:00,
2013-05-08 21:56:00,63.0,0.0,29.99,WNW,300,5.0,7.0,38,-99.99,,,-99.99,,2013-05-09 04:56:00,
2013-05-08 22:04:00,62.0,0.0,29.99,NW,316,7.0,8.0,37,-99.99,,,-99.99,,2013-05-09 05:04:00,
2013-05-08 22:12:00,62.0,0.0,30.00,NW,326,3.0,8.0,39,-99.99,,,-99.99,,2013-05-09 05:12:00,
2013-05-08 22:20:00,63.0,0.0,30.00,NW,326,3.0,7.0,36,-99.99,,,-99.99,,2013-05-09 05:20:00,
2013-05-08 22:28:00,63.0,0.0,30.00,NNW,333,7.0,7.0,39,-99.99,,,-99.99,,2013-05-09 05:28:00,
2013-05-08 22:36:00,63.0,0.0,30.00,NW,319,8.0,9.0,36,-99.99,,,-99.99,,2013-05-09 05:36:00,
2013-05-08 22:44:00,62.0,0.0,30.00,NW,325,7.0,9.0,38,-99.99,,,-99.99,,2013-05-09 05:44:00,
2013-05-08 22:52:00,62.0,0.0,30.01,NW,319,7.0,10.0,45,-99.99,,,-99.99,,2013-05-09 05:52:00,
2013-05-08 23:00:00,62.0,0.0,30.01,NW,306,7.0,10.0,45,-99.99,,,-99.99,,2013-05-09 06:00:00,
2013-05-08 23:08:00,62.0,0.0,30.01,NW,319,5.0,12.0,45,-99.99,,,-99.99,,2013-05-09 06:08:00,
2013-05-08 23:16:00,62.0,0.0,30.01,WNW,298,7.0,14.0,49,-99.99,,,-99.99,,2013-05-09 06:16:00,
2013-05-08 23:24:00,62.0,0.0,30.01,WNW,292,5.0,14.0,46,-99.99,,,-99.99,,2013-05-09 06:24:00,
2013-05-08 23:32:00,62.0,0.0,30.01,NW,319,7.0,14.0,47,-99.99,,,-99.99,,2013-05-09 06:32:00,
2013-05-08 23:40:00,61.0,0.0,30.01,NW,315,9.0,14.0,49,-99.99,,,-99.99,,2013-05-09 06:40:00,
2013-05-08 23:48:00,61.0,0.0,30.01,NW,305,7.0,14.0,51,-99.99,,,-99.99,,2013-05-09 06:48:00,
2013-05-08 23:56:00,60.0,0.0,30.01,NW,313,9.0,15.0,51,-99.99,,,-99.99,,2013-05-09 06:56:00,